TimeCDT,TemperatureF,Dew PointF,Humidity,Sea Level PressureIn,VisibilityMPH,Wind Direction,Wind SpeedMPH,Gust SpeedMPH,PrecipitationIn,Events,Conditions,WindDirDegrees,DateUTC
12:15 AM,53.6,41.0,62,30.11,10.0,Calm,Calm,-,N/A,,Clear,0,2013-05-06 05:15:00
12:35 AM,50.0,39.2,66,30.11,10.0,Calm,Calm,-,N/A,,Clear,0,2013-05-06 05:35:00
12:55 AM,51.8,41.0,67,30.11,10.0,Calm,Calm,-,N/A,,Clear,0,2013-05-06 05:55:00
1:15 AM,50.0,39.2,66,30.11,10.0,NNW,4.6,-,N/A,,Clear,340,2013-05-06 06:15:00
1:35 AM,48.2,39.2,71,30.11,10.0,Calm,Calm,-,N/A,,Clear,0,2013-05-06 06:35:00
1:55 AM,48.2,41.0,76,30.10,10.0,Calm,Calm,-,N/A,,Clear,0,2013-05-06 06:55:00
2:15 AM,46.4,39.2,76,30.10,10.0,Calm,Calm,-,N/A,,Partly Cloudy,0,2013-05-06 07:15:00
2:35 AM,46.4,37.4,71,30.10,10.0,Calm,Calm,-,N/A,,Clear,0,2013-05-06 07:35:00
2:55 AM,46.4,39.2,76,30.09,10.0,Calm,Calm,-,N/A,,Clear,0,2013-05-06 07:55:00
3:15 AM,46.4,41.0,81,30.09,10.0,Calm,Calm,-,N/A,,Clear,0,2013-05-06 08:15:00
3:35 AM,46.4,39.2,76,30.09,10.0,Calm,Calm,-,N/A,,Clear,0,2013-05-06 08:35:00
3:55 AM,46.4,39.2,76,30.09,10.0,Calm,Calm,-,N/A,,Clear,0,2013-05-06 08:55:00
4:15 AM,44.6,39.2,81,30.10,10.0,Calm,Calm,-,N/A,,Clear,0,2013-05-06 09:15:00
4:35 AM,44.6,39.2,81,30.09,10.0,Calm,Calm,-,N/A,,Clear,0,2013-05-06 09:35:00
4:55 AM,44.6,39.2,81,30.09,10.0,Calm,Calm,-,N/A,,Clear,0,2013-05-06 09:55:00
5:15 AM,44.6,39.2,81,30.10,10.0,Calm,Calm,-,N/A,,Clear,0,2013-05-06 10:15:00
5:55 AM,44.6,39.2,81,30.10,10.0,Calm,Calm,-,N/A,,Clear,0,2013-05-06 10:55:00
6:15 AM,44.6,39.2,81,30.11,10.0,Calm,Calm,-,N/A,,Clear,0,2013-05-06 11:15:00
6:35 AM,42.8,37.4,81,30.11,10.0,Calm,Calm,-,N/A,,Clear,0,2013-05-06 11:35:00
6:55 AM,41.0,37.4,87,30.12,10.0,Calm,Calm,-,N/A,,Clear,0,2013-05-06 11:55:00
7:15 AM,44.6,39.2,81,30.12,10.0,Calm,Calm,-,N/A,,Clear,0,2013-05-06 12:15:00
7:35 AM,44.6,39.2,81,30.13,10.0,Calm,Calm,-,N/A,,Clear,0,2013-05-06 12:35:00
7:55 AM,46.4,41.0,81,30.13,10.0,Calm,Calm,-,N/A,,Clear,0,2013-05-06 12:55:00
8:15 AM,51.8,44.6,76,30.13,10.0,NE,3.5,-,N/A,,Clear,50,2013-05-06 13:15:00
8:35 AM,55.4,44.6,67,30.15,10.0,Calm,Calm,-,N/A,,Clear,0,2013-05-06 13:35:00
8:55 AM,59.0,44.6,59,30.15,10.0,Calm,Calm,-,N/A,,Clear,0,2013-05-06 13:55:00
9:15 AM,60.8,42.8,52,30.15,10.0,South,5.8,-,N/A,,Clear,170,2013-05-06 14:15:00
9:35 AM,62.6,42.8,48,30.15,10.0,SSE,4.6,-,N/A,,Clear,160,2013-05-06 14:35:00
9:55 AM,64.4,42.8,45,30.15,10.0,South,8.1,-,N/A,,Clear,180,2013-05-06 14:55:00
10:15 AM,64.4,42.8,45,30.15,10.0,SSE,8.1,-,N/A,,Clear,160,2013-05-06 15:15:00
10:35 AM,66.2,44.6,46,30.14,10.0,SSE,5.8,-,N/A,,Clear,150,2013-05-06 15:35:00
10:55 AM,68.0,44.6,43,30.13,10.0,SE,6.9,-,N/A,,Clear,140,2013-05-06 15:55:00
11:15 AM,68.0,42.8,40,30.13,10.0,SE,6.9,-,N/A,,Clear,130,2013-05-06 16:15:00
11:35 AM,68.0,42.8,40,30.13,10.0,SE,8.1,-,N/A,,Clear,140,2013-05-06 16:35:00
11:55 AM,69.8,44.6,40,30.13,10.0,South,8.1,-,N/A,,Clear,170,2013-05-06 16:55:00
12:15 PM,69.8,44.6,40,30.13,10.0,SSE,6.9,-,N/A,,Clear,150,2013-05-06 17:15:00
12:35 PM,68.0,42.8,40,30.12,10.0,Calm,Calm,-,N/A,,Clear,0,2013-05-06 17:35:00
12:55 PM,69.8,41.0,35,30.12,10.0,SSE,3.5,-,N/A,,Clear,160,2013-05-06 17:55:00
1:15 PM,69.8,42.8,38,30.11,10.0,South,6.9,-,N/A,,Clear,170,2013-05-06 18:15:00
1:35 PM,69.8,42.8,38,30.10,10.0,West,3.5,-,N/A,,Clear,260,2013-05-06 18:35:00
1:55 PM,69.8,42.8,38,30.10,10.0,Calm,Calm,-,N/A,,Clear,0,2013-05-06 18:55:00
2:15 PM,68.0,42.8,40,30.10,10.0,SW,3.5,-,N/A,,Clear,230,2013-05-06 19:15:00
2:35 PM,69.8,42.8,38,30.11,10.0,SSW,6.9,-,N/A,,Clear,200,2013-05-06 19:35:00
2:55 PM,68.0,44.6,43,30.11,10.0,South,6.9,-,N/A,,Clear,190,2013-05-06 19:55:00
3:15 PM,68.0,44.6,43,30.10,10.0,SW,6.9,-,N/A,,Clear,230,2013-05-06 20:15:00
3:35 PM,68.0,44.6,43,30.10,10.0,SSW,5.8,-,N/A,,Clear,200,2013-05-06 20:35:00
3:55 PM,68.0,44.6,43,30.10,10.0,WSW,9.2,-,N/A,,Clear,240,2013-05-06 20:55:00
4:15 PM,66.2,46.4,49,30.09,10.0,WSW,10.4,-,N/A,,Scattered Clouds,250,2013-05-06 21:15:00
4:35 PM,62.6,51.8,68,30.07,9.0,West,3.5,-,N/A,Rain,Light Rain,260,2013-05-06 21:35:00
4:55 PM,60.8,53.6,77,30.06,5.0,Calm,Calm,-,0.02,Rain,Light Rain,0,2013-05-06 21:55:00
5:15 PM,60.8,55.4,82,30.07,10.0,West,5.8,-,N/A,Rain,Light Rain,260,2013-05-06 22:15:00
5:55 PM,59.0,53.6,82,30.08,6.0,WNW,5.8,-,N/A,Rain,Light Rain,300,2013-05-06 22:55:00
6:15 PM,59.0,53.6,82,30.06,5.0,North,8.1,-,N/A,Rain,Light Rain,350,2013-05-06 23:15:00
6:35 PM,59.0,55.4,88,30.05,6.0,NNE,5.8,-,0.01,Rain,Light Rain,30,2013-05-06 23:35:00
6:55 PM,59.0,55.4,88,30.05,10.0,NNE,3.5,-,0.01,,Partly Cloudy,20,2013-05-06 23:55:00
7:15 PM,59.0,55.4,88,30.05,10.0,Calm,Calm,-,N/A,,Clear,0,2013-05-07 00:15:00
7:35 PM,59.0,55.4,88,30.05,10.0,NW,5.8,-,N/A,,Mostly Cloudy,310,2013-05-07 00:35:00
7:55 PM,59.0,55.4,88,30.04,10.0,Calm,Calm,-,N/A,,Scattered Clouds,0,2013-05-07 00:55:00
8:15 PM,59.0,55.4,88,30.05,10.0,Calm,Calm,-,N/A,,Clear,0,2013-05-07 01:15:00
8:35 PM,57.2,55.4,94,30.05,10.0,Calm,Calm,-,N/A,,Partly Cloudy,0,2013-05-07 01:35:00
8:55 PM,55.4,55.4,100,30.05,10.0,Calm,Calm,-,N/A,,Clear,0,2013-05-07 01:55:00
9:15 PM,55.4,55.4,100,30.05,10.0,SW,3.5,-,N/A,,Partly Cloudy,220,2013-05-07 02:15:00
9:35 PM,53.6,53.6,100,30.05,5.0,Calm,Calm,-,N/A,,Partly Cloudy,0,2013-05-07 02:35:00
9:55 PM,51.8,51.8,100,30.06,7.0,South,3.5,-,N/A,,Partly Cloudy,170,2013-05-07 02:55:00
10:15 PM,53.6,53.6,100,30.06,9.0,Calm,Calm,-,N/A,,Clear,0,2013-05-07 03:15:00
10:35 PM,53.6,53.6,100,30.07,1.0,Calm,Calm,-,N/A,,Clear,0,2013-05-07 03:35:00
11:15 PM,50.0,50.0,100,30.08,5.0,ENE,3.5,-,N/A,,Clear,60,2013-05-07 04:15:00
11:35 PM,50.0,50.0,100,30.07,6.0,Calm,Calm,-,N/A,,Clear,0,2013-05-07 04:35:00
11:55 PM,50.0,50.0,100,30.07,2.5,Calm,Calm,-,N/A,,Partly Cloudy,0,2013-05-07 04:55:00